This is the latest recevied weather packets stored in our database for station/object KC1OEK-13. If no packets are shown the sender has not sent any weather packets the latest 10 day(s).
| Time | Temp. | Humidity | Pressure | Rain* | Wind** | Luminosity | Snow |
|---|---|---|---|---|---|---|---|
| 1777504095 | 13.89° C | 66% | 1012.6 hPa | 0 mm | - | 30 W/m² | - |
| 1777503790 | 13.89° C | 66% | 1012.3 hPa | 0 mm | - | 41 W/m² | - |
| 1777503487 | 14.44° C | 65% | 1012.6 hPa | 0 mm | - | 50 W/m² | - |
| 1777503183 | 14.44° C | 66% | 1012.3 hPa | 0 mm | - | 54 W/m² | - |
| 1777502880 | 14.44° C | 66% | 1012.2 hPa | 0 mm | - | 55 W/m² | - |
| 1777502578 | 14.44° C | 65% | 1012.5 hPa | 0 mm | - | 55 W/m² | - |
| 1777502275 | 14.44° C | 65% | 1012.5 hPa | 0 mm | - | 61 W/m² | - |
| 1777501972 | 14.44° C | 67% | 1012.6 hPa | 0 mm | - | 75 W/m² | - |
| 1777501669 | 14.44° C | 66% | 1012.6 hPa | 0 mm | - | 85 W/m² | - |
| 1777501365 | 15° C | 66% | 1012.7 hPa | 0 mm | - | 94 W/m² | - |
| 1777501063 | 15° C | 65% | 1012.8 hPa | 0 mm | - | 102 W/m² | - |
| 1777500761 | 15° C | 66% | 1012.8 hPa | 0 mm | - | 107 W/m² | - |
| 1777500458 | 15° C | 65% | 1012.6 hPa | 0 mm | - | 105 W/m² | - |
| 1777500154 | 15° C | 65% | 1012.7 hPa | 0 mm | - | 102 W/m² | - |
| 1777499851 | 15.56° C | 65% | 1013 hPa | 0 mm | - | 93 W/m² | - |
| 1777499547 | 15° C | 63% | 1012.9 hPa | 0 mm | - | 100 W/m² | - |
| 1777499246 | 15° C | 63% | 1013.3 hPa | 0 mm | - | 108 W/m² | - |
| 1777498942 | 15° C | 62% | 1013.3 hPa | 0 mm | - | 109 W/m² | - |
| 1777498639 | 15.56° C | 62% | 1013.5 hPa | 0 mm | - | 119 W/m² | - |
| 1777498334 | 15.56° C | 61% | 1013.4 hPa | 0 mm | - | 134 W/m² | - |
| 1777498033 | 15.56° C | 61% | 1013.3 hPa | 0 mm | - | 153 W/m² | - |
| 1777497729 | 15° C | 61% | 1013.4 hPa | 0 mm | - | 163 W/m² | - |
| 1777497426 | 15° C | 60% | 1013.3 hPa | 0 mm | - | 174 W/m² | - |
| 1777497122 | 15.56° C | 61% | 1013.3 hPa | 0 mm | - | 177 W/m² | - |
| 1777496819 | 15° C | 60% | 1013.3 hPa | 0 mm | - | 164 W/m² | - |
* Rain latest hour (hover to see other rain measurements)
** Current wind speed in m/s (hover to see current wind gust speed)